NOAA 16 DEB

Satellite information

Favourite Embed

Satellite Type and Status

DEBRISIN ORBIT

Key statistics

Satellite NOAA 16 DEB at a glance.

Uptime

9109

Days in orbit

Revolutions

≈ 14.3

Per day

Orbit

SSO

Sun Synchronous Orbit

Inclination

98.7

Latest

Satellite identification and parameters

Extended collection of information and parameters for NOAA 16 DEB.

Object identification

Identified? True

Debris? True

Object name: NOAA 16 DEB

International designator: 2000-055SE

Object number (NORAD): 42386

Object ID (CCSDS): 42386

Country: UNITED STATES OF AMERICA (US)

Current information (Y/N): Y

RCS size: SMALL

Orbital parameters

Period: 100.525 minutes

Inclination: 98.6958 deg

SMA: 7161.607 km

Apoapsis: 796.483 km

Periapsis: 770.46 km

RAAN: 328.0594 deg

Eccentricy: 0.00181682

Argument of periapsis: 276.1712 deg

Mean anomaly: 83.7402 deg

Mean motion: 14.32475034 rev/day

Mean motion (dot): 0.00005179 rev/day2

B* drag term: 0.0019238078 1/REarth

Two-line elements (TLE)

Creation date: Aug. 28, 2025, 11:13 p.m.

Reference frame: TEME

Reference center: EARTH

Epoch: Aug. 28, 2025, 11:01 a.m. UTC

TLE line 0: 0 NOAA 16 DEB

TLE line 1: 1 42386U 00055SE 25240.45909843 .00005179 00000-0 19238-2 0 9995

TLE line 2: 2 42386 98.6958 328.0594 0018168 276.1712 83.7402 14.32475034493385

Live tracking on map

Real-time ground track for satellite NOAA 16 DEB.

In-orbit conjunctions

A list of the most updated potential collisions computed for object NOAA 16 DEB.

Target Orbit TCA Probability of collision Miss distance Type
COSMOS 1850 LEO 2025-08-24 04:15:40 0.00010557 262.0 (m) PAYLOAD
SL-8 R/B LEO 2025-07-27 19:26:09 0.0004467909 907.0 (m) ROCKET BODY
FENGYUN 1C DEB SSO 2025-07-15 17:05:56 0.0001177727 275.0 (m) DEBRIS
COSMOS 2251 LEO 2025-04-25 01:42:08 0.000118718 497.0 (m) PAYLOAD
CZ-6A DEB LEO 2025-02-17 14:20:11 0.0001843368 612.0 (m) DEBRIS

Associated space launch

The NOAA K, L and M POES satellites begin the fifth generation of improved environmental monitoring in support of NOAA missions. The instrument payload has significant improvements and additions/deletions. The instrument changes have effected the spacecraft subsystems and data formats.

NOAA 16 DEB was lifted into orbit during the mission ‘Titan II SLV | NOAA 16’, on board a Titan II SLV space rocket.

The launch took place on Sept. 21, 2000, 10:22 a.m. from Space Launch Complex 4W.

For more information about the launch, click the button.

Launch to space Titan II SLV | NOAA 16
Titan II SLV | NOAA 16

Agency: N/A

Status: Launch Successful

Launch date: Sept. 21, 2000, 10:22 a.m. UTC

Rocket: Titan II SLV

Launch pad: Space Launch Complex 4W

Location: Vandenberg SFB, CA, USA

...

Latest news about this satellite

There are no fresh news available about this satellite. Check back as we update our databases every day.


Newsletter sign-up

Weekly statistics, charts and insights to help you stay on top of the space industry.